| time (UTC) | temp F | wind direction | speed knots | gust knots | rain 1hr in | rain 24hr in | rain mn in | humidity % | barometer mb |
| 20260901103229 | 80 | 50 | 0.0 | 3.5 | 0.00 | 0.00 | 0.00 | 87 | 1015.2 |
| 20260901103106 | 79 | 13 | 0.9 | 3.5 | 0.00 | 0.00 | 0.00 | 86 | 1015.4 |
| 20260901102950 | 80 | 111 | 1.7 | 2.6 | 0.00 | 0.00 | 0.00 | 87 | 1015.3 |
| 20260901102229 | 80 | 226 | 0.0 | 1.7 | 0.00 | 0.00 | 0.00 | 87 | 1015.5 |
| 20260901101728 | 80 | 93 | 0.9 | 4.3 | 0.00 | 0.00 | 0.00 | 86 | 1015.3 |
| 20260901101616 | 80 | 73 | 0.9 | 4.3 | 0.00 | 0.00 | 0.00 | 86 | 1015.6 |
| 20260901101229 | 80 | 18 | 1.7 | 4.3 | 0.00 | 0.00 | 0.00 | 86 | 1015.4 |
| 20260901100728 | 80 | 28 | 1.7 | 3.5 | 0.00 | 0.00 | 0.00 | 86 | 1015.4 |
| 20260901100229 | 80 | 202 | 0.9 | 2.6 | 0.00 | 0.00 | 0.00 | 86 | 1015.5 |
| 20260901100108 | 80 | 215 | 0.9 | 2.6 | 0.00 | 0.00 | 0.00 | 86 | 1015.6 |
| 20260901095729 | 80 | 256 | 0.9 | 2.6 | 0.00 | 0.00 | 0.00 | 86 | 1015.5 |
| 20260901095229 | 80 | 198 | 0.0 | 2.6 | 0.00 | 0.00 | 0.00 | 86 | 1015.6 |
| 20260901094729 | 81 | 11 | 0.0 | 4.3 | 0.00 | 0.00 | 0.00 | 86 | 1015.5 |
| 20260901094603 | 80 | 0 | 0.9 | 4.3 | 0.00 | 0.00 | 0.00 | 85 | 1015.6 |
| 20260901094453 | 81 | 241 | 1.7 | 4.3 | 0.00 | 0.00 | 0.00 | 86 | 1015.4 |
| 20260901093729 | 81 | 349 | 0.9 | 3.5 | 0.00 | 0.00 | 0.00 | 86 | 1015.5 |
| 20260901093230 | 81 | 215 | 1.7 | 4.3 | 0.00 | 0.00 | 0.00 | 86 | 1015.4 |
| 20260901093100 | 80 | 56 | 0.9 | 3.5 | 0.00 | 0.00 | 0.00 | 85 | 1015.6 |
| 20260901092730 | 81 | 95 | 1.7 | 4.3 | 0.00 | 0.00 | 0.00 | 86 | 1015.4 |
| 20260901092231 | 81 | 234 | 0.9 | 2.6 | 0.00 | 0.00 | 0.00 | 85 | 1015.5 |
| 20260901091730 | 81 | 269 | 0.9 | 2.6 | 0.00 | 0.00 | 0.00 | 85 | 1015.6 |
| 20260901091555 | 80 | 214 | 0.0 | 6.1 | 0.00 | 0.00 | 0.00 | 85 | 1015.7 |
| 20260901091229 | 81 | 19 | 1.7 | 6.1 | 0.00 | 0.00 | 0.00 | 85 | 1015.6 |
| 20260901090954 | 81 | 202 | 0.9 | 6.1 | 0.00 | 0.00 | 0.00 | 85 | 1015.6 |
| 20260901090447 | 81 | 193 | 0.9 | 3.5 | 0.00 | 0.00 | 0.00 | 85 | 1015.7 |
| 20260901090428 | 81 | 212 | 1.7 | 5.2 | 0.00 | 0.00 | 0.00 | 85 | 1015.6 |
| 20260901090100 | 81 | 330 | 0.9 | 4.3 | 0.00 | 0.00 | 0.00 | 85 | 1015.8 |
| 20260901085229 | 81 | 229 | 0.9 | 3.5 | 0.00 | 0.00 | 0.00 | 85 | 1015.8 |
| 20260901084729 | 81 | 176 | 0.9 | 3.5 | 0.00 | 0.00 | 0.00 | 85 | 1015.7 |
| 20260901084600 | 81 | 335 | 0.0 | 3.5 | 0.00 | 0.00 | 0.00 | 84 | 1015.9 |
| 20260901084229 | 81 | 126 | 0.9 | 3.5 | 0.00 | 0.00 | 0.00 | 85 | 1015.7 |
| 20260901083729 | 81 | 13 | 0.9 | 4.3 | 0.00 | 0.00 | 0.00 | 84 | 1015.7 |
| 20260901083229 | 81 | 169 | 0.9 | 4.3 | 0.00 | 0.00 | 0.00 | 84 | 1015.7 |
| 20260901083100 | 81 | 47 | 0.9 | 5.2 | 0.00 | 0.00 | 0.00 | 84 | 1015.8 |
| 20260901082954 | 82 | 290 | 0.9 | 4.3 | 0.00 | 0.00 | 0.00 | 84 | 1015.8 |
| 20260901082229 | 82 | 233 | 0.9 | 4.3 | 0.00 | 0.00 | 0.00 | 84 | 1015.7 |
| 20260901082000 | 82 | 274 | 0.9 | 4.3 | 0.00 | 0.00 | 0.00 | 84 | 1015.8 |
| 20260901081602 | 81 | 7 | 0.9 | 4.3 | 0.00 | 0.00 | 0.00 | 84 | 1016.1 |
| 20260901081229 | 82 | 225 | 0.9 | 4.3 | 0.00 | 0.00 | 0.00 | 84 | 1015.9 |
| 20260901080729 | 82 | 219 | 0.9 | 4.3 | 0.00 | 0.00 | 0.00 | 84 | 1015.8 |
| 20260901080231 | 82 | 338 | 0.9 | 6.1 | 0.00 | 0.00 | 0.00 | 84 | 1015.8 |
| 20260901080053 | 81 | 191 | 0.9 | 5.2 | 0.00 | 0.00 | 0.00 | 83 | 1016.0 |
| 20260901075731 | 82 | 250 | 0.9 | 6.1 | 0.00 | 0.00 | 0.00 | 84 | 1015.9 |
| 20260901075230 | 82 | 93 | 0.9 | 4.3 | 0.00 | 0.00 | 0.00 | 83 | 1015.7 |
| 20260901074731 | 82 | 226 | 1.7 | 3.5 | 0.00 | 0.00 | 0.00 | 83 | 1015.8 |
| 20260901074606 | 82 | 349 | 0.9 | 3.5 | 0.00 | 0.00 | 0.00 | 83 | 1016.2 |
| 20260901074229 | 82 | 257 | 1.7 | 3.5 | 0.00 | 0.00 | 0.00 | 83 | 1015.8 |
| 20260901073729 | 82 | 255 | 0.9 | 5.2 | 0.00 | 0.00 | 0.00 | 83 | 1015.9 |
| 20260901073229 | 82 | 255 | 1.7 | 5.2 | 0.00 | 0.00 | 0.00 | 83 | 1015.8 |
| 20260901073106 | 82 | 238 | 0.9 | 3.5 | 0.00 | 0.00 | 0.00 | 83 | 1016.0 |
| 20260901072729 | 82 | 287 | 0.9 | 3.5 | 0.00 | 0.00 | 0.00 | 83 | 1015.7 |
| 20260901072230 | 82 | 191 | 0.9 | 3.5 | 0.00 | 0.00 | 0.00 | 83 | 1015.8 |
| 20260901071728 | 82 | 247 | 1.7 | 3.5 | 0.00 | 0.00 | 0.00 | 83 | 1016.0 |
| 20260901071720 | 82 | 326 | 0.9 | 5.2 | 0.00 | 0.00 | 0.00 | 83 | 1016.0 |
| 20260901071603 | 82 | 44 | 0.9 | 3.5 | 0.00 | 0.00 | 0.00 | 82 | 1016.2 |
| 20260901071000 | 83 | 243 | 1.7 | 5.2 | 0.00 | 0.00 | 0.00 | 83 | 1016.1 |
| 20260901070230 | 83 | 191 | 2.6 | 5.2 | 0.00 | 0.00 | 0.00 | 83 | 1016.1 |
| 20260901070103 | 82 | 124 | 0.9 | 4.3 | 0.00 | 0.00 | 0.00 | 82 | 1016.3 |
| 20260901065959 | 83 | 53 | 1.7 | 4.3 | 0.00 | 0.00 | 0.00 | 83 | 1016.1 |
| 20260901065229 | 83 | 118 | 1.7 | 4.3 | 0.00 | 0.00 | 0.00 | 82 | 1016.1 |
| 20260901064729 | 83 | 202 | 1.7 | 4.3 | 0.00 | 0.00 | 0.00 | 82 | 1016.1 |
| 20260901064555 | 82 | 317 | 0.9 | 3.5 | 0.00 | 0.00 | 0.00 | 82 | 1016.3 |
| 20260901064228 | 83 | 210 | 0.9 | 4.3 | 0.00 | 0.00 | 0.00 | 82 | 1016.1 |
| 20260901063729 | 83 | 129 | 1.7 | 5.2 | 0.00 | 0.00 | 0.00 | 82 | 1016.0 |
| 20260901063230 | 83 | 122 | 1.7 | 5.2 | 0.00 | 0.00 | 0.00 | 82 | 1016.1 |
| 20260901063100 | 83 | 329 | 1.7 | 5.2 | 0.00 | 0.00 | 0.00 | 82 | 1016.3 |
| 20260901062729 | 83 | 343 | 0.9 | 3.5 | 0.00 | 0.00 | 0.00 | 82 | 1016.0 |
| 20260901062229 | 83 | 292 | 0.9 | 4.3 | 0.00 | 0.00 | 0.00 | 82 | 1016.2 |
| 20260901061729 | 83 | 232 | 0.9 | 6.1 | 0.00 | 0.00 | 0.00 | 82 | 1016.1 |
| 20260901061602 | 83 | 70 | 0.9 | 5.2 | 0.00 | 0.00 | 0.00 | 81 | 1016.5 |
| 20260901061228 | 83 | 347 | 0.0 | 6.1 | 0.00 | 0.00 | 0.00 | 82 | 1016.2 |
| 20260901060729 | 83 | 295 | 1.7 | 8.7 | 0.00 | 0.00 | 0.00 | 82 | 1016.2 |
| 20260901060229 | 83 | 352 | 1.7 | 8.7 | 0.00 | 0.00 | 0.00 | 81 | 1016.3 |
| 20260901060100 | 83 | 335 | 0.9 | 5.2 | 0.00 | 0.00 | 0.00 | 81 | 1016.6 |
| 20260901055729 | 83 | 17 | 1.7 | 5.2 | 0.00 | 0.00 | 0.00 | 81 | 1016.3 |
| 20260901055229 | 83 | 281 | 1.7 | 5.2 | 0.00 | 0.00 | 0.00 | 81 | 1016.3 |
| 20260901054729 | 83 | 4 | 0.9 | 5.2 | 0.00 | 0.00 | 0.00 | 81 | 1016.2 |
| 20260901054604 | 83 | 24 | 1.7 | 6.1 | 0.00 | 0.00 | 0.00 | 81 | 1016.4 |
| 20260901054451 | 84 | 214 | 1.7 | 5.2 | 0.00 | 0.00 | 0.00 | 81 | 1016.3 |
| 20260901053728 | 84 | 108 | 1.7 | 5.2 | 0.00 | 0.00 | 0.00 | 81 | 1016.1 |
| 20260901053233 | 84 | 302 | 2.6 | 5.2 | 0.00 | 0.00 | 0.00 | 81 | 1016.3 |
| 20260901053123 | 83 | 162 | 1.7 | 6.1 | 0.00 | 0.00 | 0.00 | 80 | 1016.5 |
| 20260901052950 | 84 | 208 | 1.7 | 5.2 | 0.00 | 0.00 | 0.00 | 81 | 1016.2 |
| 20260901052229 | 84 | 36 | 1.7 | 5.2 | 0.00 | 0.00 | 0.00 | 81 | 1016.3 |
| 20260901051729 | 84 | 207 | 1.7 | 6.1 | 0.00 | 0.00 | 0.00 | 80 | 1016.3 |
| 20260901051607 | 83 | 18 | 1.7 | 6.1 | 0.00 | 0.00 | 0.00 | 80 | 1016.6 |
| 20260901051449 | 84 | 90 | 1.7 | 6.1 | 0.00 | 0.00 | 0.00 | 80 | 1016.4 |
| 20260901051221 | 84 | 142 | 1.7 | 4.3 | 0.00 | 0.00 | 0.00 | 80 | 1016.4 |
| 20260901050231 | 84 | 160 | 1.7 | 4.3 | 0.00 | 0.00 | 0.00 | 80 | 1016.4 |
| 20260901050108 | 84 | 226 | 0.9 | 5.2 | 0.00 | 0.00 | 0.00 | 79 | 1016.6 |
| 20260901045955 | 84 | 249 | 0.9 | 5.2 | 0.00 | 0.00 | 0.00 | 79 | 1016.3 |
| 20260901045455 | 84 | 230 | 2.6 | 5.2 | 0.00 | 0.00 | 0.00 | 79 | 1016.4 |
| 20260901044940 | 84 | 256 | 1.7 | 7.8 | 0.00 | 0.00 | 0.00 | 79 | 1016.6 |
| 20260901044928 | 84 | 177 | 2.6 | 7.0 | 0.00 | 0.00 | 0.00 | 79 | 1016.4 |
| 20260901044634 | 84 | 200 | 1.7 | 7.0 | 0.00 | 0.00 | 0.00 | 78 | 1016.7 |
| 20260901043729 | 84 | 274 | 2.6 | 7.8 | 0.00 | 0.00 | 0.00 | 78 | 1016.5 |
| 20260901043229 | 84 | 185 | 2.6 | 6.1 | 0.00 | 0.00 | 0.00 | 78 | 1016.6 |
| 20260901043053 | 84 | 192 | 1.7 | 7.8 | 0.00 | 0.00 | 0.00 | 77 | 1016.7 |
| 20260901042729 | 84 | 317 | 3.5 | 7.8 | 0.00 | 0.00 | 0.00 | 77 | 1016.6 |
| 20260901042229 | 85 | 191 | 3.5 | 7.8 | 0.00 | 0.00 | 0.00 | 77 | 1016.4 |
| 20260901041729 | 85 | 214 | 3.5 | 7.0 | 0.00 | 0.00 | 0.00 | 77 | 1016.4 |
| 20260901041602 | 84 | 349 | 1.7 | 6.1 | 0.00 | 0.00 | 0.00 | 76 | 1016.8 |
| 20260901041229 | 85 | 140 | 1.7 | 6.1 | 0.00 | 0.00 | 0.00 | 76 | 1016.5 |
| 20260901040729 | 85 | 335 | 2.6 | 7.0 | 0.00 | 0.00 | 0.00 | 76 | 1016.4 |
| 20260901040231 | 85 | 84 | 3.5 | 7.0 | 0.00 | 0.00 | 0.00 | 76 | 1016.4 |
| 20260901040059 | 84 | 304 | 2.6 | 7.0 | 0.00 | 0.00 | 0.00 | 75 | 1016.6 |
| 20260901035957 | 85 | 139 | 1.7 | 7.0 | 0.00 | 0.00 | 0.00 | 76 | 1016.4 |
| 20260901035231 | 85 | 302 | 4.3 | 7.0 | 0.00 | 0.00 | 0.00 | 76 | 1016.3 |
| 20260901034731 | 85 | 124 | 2.6 | 7.8 | 0.00 | 0.00 | 0.00 | 75 | 1016.2 |
| 20260901034601 | 85 | 357 | 1.7 | 7.8 | 0.00 | 0.00 | 0.00 | 75 | 1016.4 |
| 20260901034243 | 85 | 46 | 2.6 | 7.8 | 0.00 | 0.00 | 0.00 | 75 | 1016.3 |
| 20260901033728 | 85 | 324 | 4.3 | 7.8 | 0.00 | 0.00 | 0.00 | 75 | 1016.1 |
| 20260901033229 | 85 | 231 | 3.5 | 7.8 | 0.00 | 0.00 | 0.00 | 75 | 1016.1 |
| 20260901033100 | 85 | 231 | 2.6 | 7.8 | 0.00 | 0.00 | 0.00 | 74 | 1016.4 |
| 20260901032729 | 85 | 86 | 3.5 | 7.0 | 0.00 | 0.00 | 0.00 | 75 | 1016.1 |
| 20260901032229 | 85 | 297 | 3.5 | 8.7 | 0.00 | 0.00 | 0.00 | 75 | 1016.0 |
| 20260901031729 | 86 | 101 | 4.3 | 8.7 | 0.00 | 0.00 | 0.00 | 74 | 1016.0 |
| 20260901031600 | 85 | 3 | 3.5 | 9.6 | 0.00 | 0.00 | 0.00 | 74 | 1016.2 |
| 20260901031229 | 86 | 4 | 3.5 | 7.8 | 0.00 | 0.00 | 0.00 | 74 | 1015.9 |
| 20260901030728 | 86 | 211 | 4.3 | 7.8 | 0.00 | 0.00 | 0.00 | 73 | 1015.9 |
| 20260901030226 | 86 | 96 | 3.5 | 9.6 | 0.00 | 0.00 | 0.00 | 73 | 1015.9 |
| 20260901030105 | 86 | 307 | 2.6 | 9.6 | 0.00 | 0.00 | 0.00 | 72 | 1016.0 |
| 20260901025724 | 86 | 249 | 4.3 | 9.6 | 0.00 | 0.00 | 0.00 | 72 | 1015.7 |
| 20260901025219 | 86 | 150 | 4.3 | 7.0 | 0.00 | 0.00 | 0.00 | 72 | 1015.6 |
| 20260901024715 | 86 | 6 | 4.3 | 9.6 | 0.00 | 0.00 | 0.00 | 71 | 1015.2 |
| 20260901024605 | 86 | 312 | 3.5 | 9.6 | 0.00 | 0.00 | 0.00 | 71 | 1015.5 |
| 20260901024216 | 87 | 20 | 3.5 | 10.4 | 0.00 | 0.00 | 0.00 | 71 | 1015.1 |
| 20260901023705 | 87 | 157 | 3.5 | 10.4 | 0.00 | 0.00 | 0.00 | 70 | 1015.0 |
| 20260901023204 | 87 | 184 | 4.3 | 10.4 | 0.00 | 0.00 | 0.00 | 69 | 1015.0 |
| 20260901023107 | 87 | 231 | 3.5 | 8.7 | 0.00 | 0.00 | 0.00 | 68 | 1015.0 |
| 20260901022712 | 87 | 177 | 4.3 | 9.6 | 0.00 | 0.00 | 0.00 | 68 | 1014.8 |
| 20260901022217 | 87 | 68 | 5.2 | 10.4 | 0.00 | 0.00 | 0.00 | 67 | 1014.6 |
| 20260901021708 | 87 | 56 | 5.2 | 10.4 | 0.00 | 0.00 | 0.00 | 66 | 1014.6 |
| 20260901021634 | 87 | 101 | 4.3 | 9.6 | 0.00 | 0.00 | 0.00 | 66 | 1014.6 |
| 20260901021216 | 88 | 177 | 3.5 | 10.4 | 0.00 | 0.00 | 0.00 | 65 | 1014.5 |
| 20260901020923 | 88 | 44 | 4.3 | 11.3 | 0.00 | 0.00 | 0.00 | 64 | 1014.5 |
| 20260901020156 | 88 | 323 | 6.1 | 11.3 | 0.00 | 0.00 | 0.00 | 64 | 1014.3 |
| 20260901020111 | 88 | 44 | 5.2 | 11.3 | 0.00 | 0.00 | 0.00 | 63 | 1014.4 |
| 20260901015653 | 88 | 300 | 6.1 | 10.4 | 0.00 | 0.00 | 0.00 | 63 | 1014.3 |
| 20260901015147 | 89 | 208 | 3.5 | 9.6 | 0.00 | 0.00 | 0.00 | 62 | 1014.1 |
| 20260901014642 | 89 | 323 | 3.5 | 8.7 | 0.00 | 0.00 | 0.00 | 62 | 1014.1 |
| 20260901014606 | 88 | 333 | 2.6 | 10.4 | 0.00 | 0.00 | 0.00 | 61 | 1014.3 |
| 20260901014405 | 89 | 189 | 4.3 | 10.4 | 0.00 | 0.00 | 0.00 | 61 | 1014.0 |
| 20260901013632 | 89 | 150 | 5.2 | 10.4 | 0.00 | 0.00 | 0.00 | 62 | 1013.9 |
| 20260901013132 | 89 | 227 | 5.2 | 8.7 | 0.00 | 0.00 | 0.00 | 61 | 1013.9 |
| 20260901013109 | 89 | 356 | 4.3 | 9.6 | 0.00 | 0.00 | 0.00 | 61 | 1014.0 |
| 20260901012630 | 90 | 344 | 4.3 | 11.3 | 0.00 | 0.00 | 0.00 | 61 | 1013.8 |
| 20260901012400 | 90 | 108 | 5.2 | 11.3 | 0.00 | 0.00 | 0.00 | 60 | 1013.8 |
| 20260901011628 | 90 | 221 | 3.5 | 15.6 | 0.00 | 0.00 | 0.00 | 59 | 1013.8 |
| 20260901011556 | 90 | 25 | 4.3 | 14.8 | 0.00 | 0.00 | 0.00 | 59 | 1013.9 |
| 20260901011122 | 91 | 16 | 6.1 | 15.6 | 0.00 | 0.00 | 0.00 | 58 | 1013.6 |
| 20260901010632 | 91 | 207 | 3.5 | 9.6 | 0.00 | 0.00 | 0.00 | 57 | 1013.5 |
| 20260901010122 | 91 | 180 | 3.5 | 7.8 | 0.00 | 0.00 | 0.00 | 56 | 1013.6 |
| 20260901010101 | 91 | 257 | 2.6 | 11.3 | 0.00 | 0.00 | 0.00 | 55 | 1013.7 |
| 20260901005841 | 92 | 259 | 4.3 | 11.3 | 0.00 | 0.00 | 0.00 | 55 | 1013.5 |
| 20260901005116 | 92 | 303 | 4.3 | 11.3 | 0.00 | 0.00 | 0.00 | 54 | 1013.4 |
| 20260901004611 | 92 | 49 | 7.0 | 10.4 | 0.00 | 0.00 | 0.00 | 53 | 1013.3 |
| 20260901004608 | 92 | 323 | 5.2 | 11.3 | 0.00 | 0.00 | 0.00 | 52 | 1013.5 |
| 20260901004106 | 93 | 219 | 6.1 | 11.3 | 0.00 | 0.00 | 0.00 | 52 | 1013.2 |
| 20260901003614 | 93 | 110 | 5.2 | 11.3 | 0.00 | 0.00 | 0.00 | 51 | 1013.1 |
| 20260901003123 | 93 | 238 | 3.5 | 11.3 | 0.00 | 0.00 | 0.00 | 50 | 1013.2 |
| 20260901003115 | 94 | 278 | 4.3 | 9.6 | 0.00 | 0.00 | 0.00 | 50 | 1013.0 |
| 20260901002602 | 94 | 301 | 3.5 | 9.6 | 0.00 | 0.00 | 0.00 | 50 | 1013.0 |
| 20260901002104 | 94 | 158 | 4.3 | 9.6 | 0.00 | 0.00 | 0.00 | 49 | 1013.0 |
| 20260901001612 | 94 | 300 | 6.1 | 10.4 | 0.00 | 0.00 | 0.00 | 48 | 1013.1 |
| 20260901001602 | 94 | 38 | 6.1 | 9.6 | 0.00 | 0.00 | 0.00 | 48 | 1013.0 |
| 20260901001056 | 95 | 102 | 5.2 | 11.3 | 0.00 | 0.00 | 0.00 | 48 | 1012.8 |
| 20260901000552 | 95 | 283 | 4.3 | 11.3 | 0.00 | 0.00 | 0.00 | 48 | 1012.9 |
| 20260901000059 | 95 | 207 | 4.3 | 9.6 | 0.00 | 0.00 | 0.00 | 46 | 1013.0 |
| 20260901000050 | 96 | 198 | 4.3 | 9.6 | 0.00 | 0.00 | 0.00 | 47 | 1012.8 |
| 20260831235551 | 96 | 188 | 3.5 | 9.6 | 0.00 | 0.00 | 0.00 | 46 | 1012.7 |
| 20260831235045 | 96 | 126 | 3.5 | 8.7 | 0.00 | 0.00 | 0.00 | 45 | 1012.6 |
| 20260831234624 | 96 | 75 | 5.2 | 10.4 | 0.00 | 0.00 | 0.00 | 44 | 1012.8 |
| 20260831234541 | 97 | 89 | 6.1 | 10.4 | 0.00 | 0.00 | 0.00 | 45 | 1012.6 |
| 20260831234036 | 97 | 10 | 4.3 | 10.4 | 0.00 | 0.00 | 0.00 | 45 | 1012.6 |
| 20260831233540 | 97 | 355 | 5.2 | 10.4 | 0.00 | 0.00 | 0.00 | 44 | 1012.5 |
| 20260831233052 | 97 | 299 | 6.1 | 11.3 | 0.00 | 0.00 | 0.00 | 42 | 1012.6 |
| 20260831233029 | 98 | 333 | 7.0 | 12.2 | 0.00 | 0.00 | 0.00 | 42 | 1012.4 |
| 20260831232529 | 98 | 312 | 5.2 | 12.2 | 0.00 | 0.00 | 0.00 | 42 | 1012.5 |
| 20260831232029 | 99 | 137 | 2.6 | 7.8 | 0.00 | 0.00 | 0.00 | 41 | 1012.5 |
| 20260831231607 | 99 | 312 | 2.6 | 10.4 | 0.00 | 0.00 | 0.00 | 39 | 1012.5 |
| 20260831231526 | 99 | 167 | 3.5 | 11.3 | 0.00 | 0.00 | 0.00 | 40 | 1012.4 |
| 20260831231022 | 99 | 26 | 5.2 | 11.3 | 0.00 | 0.00 | 0.00 | 39 | 1012.5 |
| 20260831230522 | 100 | 66 | 4.3 | 8.7 | 0.00 | 0.00 | 0.00 | 38 | 1012.5 |
| 20260831230057 | 100 | 266 | 3.5 | 8.7 | 0.00 | 0.00 | 0.00 | 38 | 1012.7 |
| 20260831230021 | 100 | 101 | 3.5 | 7.8 | 0.00 | 0.00 | 0.00 | 38 | 1012.4 |
| 20260831225521 | 100 | 117 | 2.6 | 10.4 | 0.00 | 0.00 | 0.00 | 39 | 1012.3 |
| 20260831225241 | 100 | 147 | 3.5 | 10.4 | 0.00 | 0.00 | 0.00 | 40 | 1012.4 |
| 20260831224602 | 100 | 45 | 2.6 | 11.3 | 0.00 | 0.00 | 0.00 | 39 | 1012.6 |
| 20260831224514 | 101 | 63 | 2.6 | 7.0 | 0.00 | 0.00 | 0.00 | 41 | 1012.4 |
| 20260831224012 | 101 | 346 | 4.3 | 9.6 | 0.00 | 0.00 | 0.00 | 40 | 1012.4 |
| 20260831223509 | 101 | 57 | 4.3 | 9.6 | 0.00 | 0.00 | 0.00 | 40 | 1012.5 |
| 20260831223228 | 101 | 138 | 3.5 | 8.7 | 0.00 | 0.00 | 0.00 | 39 | 1012.3 |
| 20260831223058 | 101 | 295 | 2.6 | 8.7 | 0.00 | 0.00 | 0.00 | 39 | 1012.5 |
| 20260831222506 | 101 | 54 | 4.3 | 8.7 | 0.00 | 0.00 | 0.00 | 39 | 1012.4 |
| 20260831222008 | 101 | 133 | 3.5 | 7.0 | 0.00 | 0.00 | 0.00 | 40 | 1012.5 |
| 20260831221729 | 101 | 117 | 3.5 | 7.0 | 0.00 | 0.00 | 0.00 | 39 | 1012.5 |
| 20260831221554 | 101 | 258 | 3.5 | 7.0 | 0.00 | 0.00 | 0.00 | 38 | 1012.8 |
| 20260831221228 | 101 | 276 | 3.5 | 7.8 | 0.00 | 0.00 | 0.00 | 38 | 1012.6 |
| 20260831220506 | 101 | 335 | 4.3 | 9.6 | 0.00 | 0.00 | 0.00 | 39 | 1012.7 |
| 20260831220111 | 101 | 252 | 4.3 | 9.6 | 0.00 | 0.00 | 0.00 | 39 | 1012.8 |
| 20260831220005 | 101 | 103 | 5.2 | 9.6 | 0.00 | 0.00 | 0.00 | 39 | 1012.6 |
| 20260831215503 | 102 | 23 | 2.6 | 7.8 | 0.00 | 0.00 | 0.00 | 38 | 1012.8 |
| 20260831215003 | 102 | 268 | 4.3 | 11.3 | 0.00 | 0.00 | 0.00 | 38 | 1012.7 |
| 20260831214559 | 102 | 55 | 3.5 | 10.4 | 0.00 | 0.00 | 0.00 | 36 | 1012.9 |
| 20260831214502 | 102 | 143 | 3.5 | 11.3 | 0.00 | 0.00 | 0.00 | 35 | 1012.7 |
| 20260831214001 | 103 | 319 | 3.5 | 10.4 | 0.00 | 0.00 | 0.00 | 36 | 1012.7 |
| 20260831213500 | 103 | 213 | 3.5 | 8.7 | 0.00 | 0.00 | 0.00 | 36 | 1012.7 |
| 20260831213054 | 102 | 104 | 3.5 | 7.8 | 0.00 | 0.00 | 0.00 | 35 | 1013.0 |
| 20260831213000 | 103 | 221 | 3.5 | 8.7 | 0.00 | 0.00 | 0.00 | 36 | 1012.8 |
| 20260831212501 | 103 | 300 | 4.3 | 8.7 | 0.00 | 0.00 | 0.00 | 35 | 1013.0 |
| 20260831212001 | 103 | 277 | 2.6 | 8.7 | 0.00 | 0.00 | 0.00 | 36 | 1013.0 |
| 20260831211612 | 102 | 335 | 3.5 | 9.6 | 0.00 | 0.00 | 0.00 | 35 | 1013.2 |
| 20260831211501 | 103 | 46 | 4.3 | 9.6 | 0.00 | 0.00 | 0.00 | 36 | 1013.0 |
| 20260831211001 | 103 | 326 | 3.5 | 10.4 | 0.00 | 0.00 | 0.00 | 36 | 1013.1 |
| 20260831210501 | 103 | 41 | 4.3 | 10.4 | 0.00 | 0.00 | 0.00 | 37 | 1013.1 |
| 20260831210103 | 102 | 168 | 3.5 | 7.0 | 0.00 | 0.00 | 0.00 | 34 | 1013.3 |
| 20260831210000 | 103 | 335 | 4.3 | 7.0 | 0.00 | 0.00 | 0.00 | 35 | 1013.0 |
| 20260831205502 | 103 | 115 | 2.6 | 7.8 | 0.00 | 0.00 | 0.00 | 36 | 1013.2 |
| 20260831205003 | 103 | 56 | 1.7 | 7.8 | 0.00 | 0.00 | 0.00 | 36 | 1013.3 |
| 20260831204559 | 103 | 167 | 4.3 | 7.8 | 0.00 | 0.00 | 0.00 | 36 | 1013.6 |
| 20260831204503 | 103 | 131 | 5.2 | 7.8 | 0.00 | 0.00 | 0.00 | 35 | 1013.5 |
| 20260831204002 | 103 | 202 | 3.5 | 7.8 | 0.00 | 0.00 | 0.00 | 36 | 1013.4 |
| 20260831203501 | 103 | 16 | 1.7 | 7.8 | 0.00 | 0.00 | 0.00 | 37 | 1013.5 |
| 20260831203102 | 103 | 49 | 2.6 | 7.8 | 0.00 | 0.00 | 0.00 | 36 | 1013.8 |
| 20260831203001 | 103 | 224 | 3.5 | 7.8 | 0.00 | 0.00 | 0.00 | 37 | 1013.7 |
| 20260831202501 | 103 | 243 | 5.2 | 7.8 | 0.00 | 0.00 | 0.00 | 37 | 1013.6 |
| 20260831202001 | 103 | 12 | 2.6 | 7.8 | 0.00 | 0.00 | 0.00 | 36 | 1013.7 |
| 20260831201952 | 104 | 280 | 3.5 | 7.0 | 0.00 | 0.00 | 0.00 | 38 | 1013.7 |
| 20260831201608 | 103 | 309 | 2.6 | 7.8 | 0.00 | 0.00 | 0.00 | 39 | 1013.9 |
| 20260831201000 | 103 | 184 | 2.6 | 8.7 | 0.00 | 0.00 | 0.00 | 39 | 1013.8 |
| 20260831200501 | 103 | 103 | 3.5 | 8.7 | 0.00 | 0.00 | 0.00 | 38 | 1013.8 |
| 20260831200221 | 103 | 183 | 2.6 | 7.0 | 0.00 | 0.00 | 0.00 | 39 | 1013.9 |
| 20260831200105 | 102 | 258 | 1.7 | 7.8 | 0.00 | 0.00 | 0.00 | 38 | 1014.1 |
| 20260831195502 | 103 | 235 | 3.5 | 7.0 | 0.00 | 0.00 | 0.00 | 38 | 1013.9 |
| 20260831195229 | 103 | 108 | 2.6 | 7.0 | 0.00 | 0.00 | 0.00 | 38 | 1013.9 |
| 20260831194723 | 104 | 90 | 1.7 | 11.3 | 0.00 | 0.00 | 0.00 | 36 | 1014.1 |
| 20260831194635 | 103 | 277 | 1.7 | 11.3 | 0.00 | 0.00 | 0.00 | 35 | 1014.3 |
| 20260831194003 | 103 | 316 | 4.3 | 11.3 | 0.00 | 0.00 | 0.00 | 38 | 1014.1 |
| 20260831193515 | 103 | 23 | 1.7 | 8.7 | 0.00 | 0.00 | 0.00 | 37 | 1014.2 |
| 20260831193102 | 102 | 221 | 3.5 | 7.8 | 0.00 | 0.00 | 0.00 | 37 | 1014.4 |
| 20260831193002 | 103 | 309 | 3.5 | 8.7 | 0.00 | 0.00 | 0.00 | 37 | 1014.3 |
| 20260831192502 | 102 | 226 | 3.5 | 6.1 | 0.00 | 0.00 | 0.00 | 37 | 1014.3 |
| 20260831192002 | 102 | 298 | 2.6 | 12.2 | 0.00 | 0.00 | 0.00 | 37 | 1014.5 |
| 20260831191726 | 102 | 1 | 4.3 | 12.2 | 0.00 | 0.00 | 0.00 | 37 | 1014.5 |
| 20260831191602 | 101 | 269 | 4.3 | 11.3 | 0.00 | 0.00 | 0.00 | 37 | 1014.6 |
| 20260831191002 | 102 | 346 | 3.5 | 9.6 | 0.00 | 0.00 | 0.00 | 38 | 1014.5 |
| 20260831190722 | 102 | 29 | 2.6 | 13.9 | 0.00 | 0.00 | 0.00 | 39 | 1014.7 |
| 20260831190113 | 101 | 130 | 2.6 | 13.0 | 0.00 | 0.00 | 0.00 | 38 | 1015.0 |
| 20260831190002 | 102 | 209 | 2.6 | 13.9 | 0.00 | 0.00 | 0.00 | 39 | 1014.7 |
| 20260831185502 | 102 | 290 | 3.5 | 7.8 | 0.00 | 0.00 | 0.00 | 38 | 1014.9 |
| 20260831185003 | 101 | 113 | 0.9 | 7.8 | 0.00 | 0.00 | 0.00 | 41 | 1014.8 |
| 20260831184631 | 100 | 226 | 2.6 | 7.0 | 0.00 | 0.00 | 0.00 | 41 | 1015.1 |
| 20260831184502 | 101 | 157 | 3.5 | 7.8 | 0.00 | 0.00 | 0.00 | 41 | 1014.9 |
| 20260831184228 | 102 | 95 | 1.7 | 7.8 | 0.00 | 0.00 | 0.00 | 42 | 1015.0 |
| 20260831183500 | 100 | 207 | 2.6 | 7.8 | 0.00 | 0.00 | 0.00 | 43 | 1015.1 |
| 20260831183108 | 100 | 20 | 2.6 | 7.8 | 0.00 | 0.00 | 0.00 | 43 | 1015.3 |
| 20260831183001 | 100 | 224 | 2.6 | 7.8 | 0.00 | 0.00 | 0.00 | 43 | 1015.1 |
| 20260831182501 | 100 | 169 | 3.5 | 7.8 | 0.00 | 0.00 | 0.00 | 41 | 1015.2 |
| 20260831182001 | 100 | 81 | 3.5 | 9.6 | 0.00 | 0.00 | 0.00 | 43 | 1015.3 |
| 20260831181559 | 99 | 285 | 3.5 | 9.6 | 0.00 | 0.00 | 0.00 | 42 | 1015.5 |
| 20260831181501 | 100 | 344 | 3.5 | 9.6 | 0.00 | 0.00 | 0.00 | 42 | 1015.2 |
| 20260831181001 | 100 | 148 | 2.6 | 11.3 | 0.00 | 0.00 | 0.00 | 43 | 1015.5 |
| 20260831180501 | 99 | 91 | 3.5 | 11.3 | 0.00 | 0.00 | 0.00 | 44 | 1015.5 |
| 20260831180054 | 99 | 265 | 2.6 | 7.0 | 0.00 | 0.00 | 0.00 | 45 | 1015.8 |
| 20260831180001 | 99 | 269 | 3.5 | 7.8 | 0.00 | 0.00 | 0.00 | 45 | 1015.6 |
| 20260831175502 | 99 | 1 | 3.5 | 7.0 | 0.00 | 0.00 | 0.00 | 45 | 1015.6 |
| 20260831175003 | 99 | 339 | 4.3 | 7.8 | 0.00 | 0.00 | 0.00 | 47 | 1015.7 |
| 20260831174612 | 98 | 13 | 1.7 | 9.6 | 0.00 | 0.00 | 0.00 | 47 | 1015.9 |
| 20260831174502 | 98 | 260 | 1.7 | 7.8 | 0.00 | 0.00 | 0.00 | 47 | 1015.7 |
| 20260831174220 | 98 | 176 | 3.5 | 7.8 | 0.00 | 0.00 | 0.00 | 48 | 1015.8 |
| 20260831173457 | 98 | 97 | 2.6 | 6.1 | 0.00 | 0.00 | 0.00 | 47 | 1016.0 |
| 20260831173211 | 98 | 153 | 2.6 | 7.0 | 0.00 | 0.00 | 0.00 | 48 | 1016.0 |
| 20260831173107 | 97 | 283 | 2.6 | 7.0 | 0.00 | 0.00 | 0.00 | 47 | 1016.2 |
| 20260831172447 | 97 | 30 | 3.5 | 7.0 | 0.00 | 0.00 | 0.00 | 50 | 1016.1 |
| 20260831171943 | 97 | 101 | 2.6 | 10.4 | 0.00 | 0.00 | 0.00 | 50 | 1016.1 |
| 20260831171555 | 96 | 277 | 3.5 | 9.6 | 0.00 | 0.00 | 0.00 | 50 | 1016.3 |
| 20260831171439 | 96 | 242 | 4.3 | 10.4 | 0.00 | 0.00 | 0.00 | 50 | 1016.2 |
| 20260831171155 | 96 | 150 | 3.5 | 7.8 | 0.00 | 0.00 | 0.00 | 50 | 1016.2 |
| 20260831170431 | 96 | 218 | 1.7 | 7.0 | 0.00 | 0.00 | 0.00 | 52 | 1016.1 |
| 20260831170152 | 96 | 258 | 3.5 | 7.8 | 0.00 | 0.00 | 0.00 | 52 | 1016.2 |
| 20260831170058 | 95 | 55 | 2.6 | 7.0 | 0.00 | 0.00 | 0.00 | 52 | 1016.5 |
| 20260831165431 | 96 | 162 | 3.5 | 7.8 | 0.00 | 0.00 | 0.00 | 52 | 1016.2 |
| 20260831164931 | 95 | 251 | 3.5 | 7.0 | 0.00 | 0.00 | 0.00 | 54 | 1016.2 |
| 20260831164606 | 95 | 121 | 1.7 | 7.0 | 0.00 | 0.00 | 0.00 | 54 | 1016.4 |
| 20260831164430 | 95 | 58 | 2.6 | 7.8 | 0.00 | 0.00 | 0.00 | 54 | 1016.1 |
| 20260831163930 | 94 | 65 | 3.5 | 7.8 | 0.00 | 0.00 | 0.00 | 56 | 1016.2 |
| 20260831163650 | 94 | 211 | 1.7 | 7.8 | 0.00 | 0.00 | 0.00 | 57 | 1016.3 |
| 20260831163055 | 93 | 234 | 2.6 | 8.7 | 0.00 | 0.00 | 0.00 | 55 | 1016.4 |
| 20260831162928 | 94 | 154 | 2.6 | 7.8 | 0.00 | 0.00 | 0.00 | 56 | 1016.2 |
| 20260831162423 | 94 | 288 | 2.6 | 6.1 | 0.00 | 0.00 | 0.00 | 57 | 1016.3 |
| 20260831161919 | 94 | 300 | 3.5 | 8.7 | 0.00 | 0.00 | 0.00 | 58 | 1016.2 |
| 20260831161607 | 93 | 209 | 1.7 | 8.7 | 0.00 | 0.00 | 0.00 | 57 | 1016.5 |
| 20260831161415 | 93 | 266 | 2.6 | 8.7 | 0.00 | 0.00 | 0.00 | 57 | 1016.2 |
| 20260831160911 | 93 | 39 | 2.6 | 7.8 | 0.00 | 0.00 | 0.00 | 59 | 1016.3 |
| 20260831160410 | 92 | 72 | 2.6 | 7.8 | 0.00 | 0.00 | 0.00 | 60 | 1016.4 |
| 20260831160109 | 92 | 231 | 1.7 | 8.7 | 0.00 | 0.00 | 0.00 | 60 | 1016.7 |
| 20260831155906 | 92 | 245 | 2.6 | 7.0 | 0.00 | 0.00 | 0.00 | 62 | 1016.5 |
| 20260831155406 | 92 | 176 | 2.6 | 6.1 | 0.00 | 0.00 | 0.00 | 62 | 1016.4 |
| 20260831154906 | 91 | 230 | 2.6 | 7.8 | 0.00 | 0.00 | 0.00 | 63 | 1016.4 |
| 20260831154621 | 90 | 37 | 2.6 | 7.8 | 0.00 | 0.00 | 0.00 | 64 | 1016.7 |
| 20260831154408 | 90 | 75 | 3.5 | 7.8 | 0.00 | 0.00 | 0.00 | 65 | 1016.5 |
| 20260831153908 | 90 | 169 | 2.6 | 7.8 | 0.00 | 0.00 | 0.00 | 65 | 1016.4 |
| 20260831153359 | 90 | 104 | 3.5 | 8.7 | 0.00 | 0.00 | 0.00 | 65 | 1016.4 |
| 20260831153105 | 89 | 136 | 2.6 | 9.6 | 0.00 | 0.00 | 0.00 | 66 | 1016.6 |
| 20260831152855 | 89 | 341 | 2.6 | 8.7 | 0.00 | 0.00 | 0.00 | 66 | 1016.3 |
| 20260831152611 | 89 | 25 | 1.7 | 7.0 | 0.00 | 0.00 | 0.00 | 69 | 1016.3 |
| 20260831152115 | 88 | 53 | 4.3 | 9.6 | 0.00 | 0.00 | 0.00 | 69 | 1016.4 |
| 20260831151607 | 88 | 226 | 3.5 | 8.7 | 0.00 | 0.00 | 0.00 | 69 | 1016.6 |
| 20260831151340 | 88 | 186 | 3.5 | 9.6 | 0.00 | 0.00 | 0.00 | 70 | 1016.4 |
| 20260831151112 | 88 | 11 | 3.5 | 8.7 | 0.00 | 0.00 | 0.00 | 71 | 1016.4 |
| 20260831150333 | 87 | 23 | 2.6 | 8.7 | 0.00 | 0.00 | 0.00 | 72 | 1016.4 |
| 20260831150058 | 87 | 274 | 2.6 | 9.6 | 0.00 | 0.00 | 0.00 | 72 | 1016.5 |
| 20260831145831 | 87 | 297 | 2.6 | 9.6 | 0.00 | 0.00 | 0.00 | 73 | 1016.4 |
| 20260831145331 | 87 | 240 | 4.3 | 9.6 | 0.00 | 0.00 | 0.00 | 73 | 1016.4 |
| 20260831144830 | 86 | 169 | 2.6 | 7.0 | 0.00 | 0.00 | 0.00 | 75 | 1016.3 |
| 20260831144609 | 86 | 273 | 2.6 | 7.8 | 0.00 | 0.00 | 0.00 | 73 | 1016.5 |
| 20260831144331 | 87 | 139 | 2.6 | 7.0 | 0.00 | 0.00 | 0.00 | 74 | 1016.2 |
| 20260831143828 | 86 | 135 | 3.5 | 7.8 | 0.00 | 0.00 | 0.00 | 76 | 1016.3 |
| 20260831143554 | 86 | 143 | 3.5 | 7.8 | 0.00 | 0.00 | 0.00 | 76 | 1016.3 |
| 20260831143053 | 85 | 211 | 1.7 | 7.0 | 0.00 | 0.00 | 0.00 | 76 | 1016.6 |
| 20260831142828 | 86 | 37 | 2.6 | 7.0 | 0.00 | 0.00 | 0.00 | 76 | 1016.3 |
| 20260831142329 | 85 | 216 | 2.6 | 8.7 | 0.00 | 0.00 | 0.00 | 78 | 1016.4 |
| 20260831141829 | 85 | 184 | 2.6 | 8.7 | 0.00 | 0.00 | 0.00 | 78 | 1016.2 |
| 20260831141605 | 84 | 7 | 2.6 | 7.0 | 0.00 | 0.00 | 0.00 | 78 | 1016.6 |
| 20260831141329 | 85 | 170 | 2.6 | 7.8 | 0.00 | 0.00 | 0.00 | 79 | 1016.3 |
| 20260831140828 | 85 | 250 | 1.7 | 7.8 | 0.00 | 0.00 | 0.00 | 79 | 1016.4 |
| 20260831140551 | 84 | 59 | 2.6 | 6.1 | 0.00 | 0.00 | 0.00 | 81 | 1016.3 |
| 20260831140057 | 84 | 232 | 0.9 | 5.2 | 0.00 | 0.00 | 0.00 | 81 | 1016.7 |
| 20260831135829 | 84 | 146 | 1.7 | 5.2 | 0.00 | 0.00 | 0.00 | 82 | 1016.4 |
| 20260831135554 | 84 | 13 | 2.6 | 5.2 | 0.00 | 0.00 | 0.00 | 82 | 1016.2 |
| 20260831134831 | 83 | 240 | 1.7 | 6.1 | 0.00 | 0.00 | 0.00 | 82 | 1016.2 |
| 20260831134600 | 83 | 150 | 1.7 | 6.1 | 0.00 | 0.00 | 0.00 | 82 | 1016.3 |
| 20260831134330 | 83 | 60 | 1.7 | 6.1 | 0.00 | 0.00 | 0.00 | 83 | 1016.1 |
| 20260831133830 | 83 | 99 | 1.7 | 5.2 | 0.00 | 0.00 | 0.00 | 83 | 1016.1 |
| 20260831133329 | 83 | 308 | 1.7 | 5.2 | 0.00 | 0.00 | 0.00 | 83 | 1016.0 |
| 20260831133055 | 82 | 11 | 0.9 | 4.3 | 0.00 | 0.00 | 0.00 | 83 | 1016.2 |
| 20260831132828 | 83 | 298 | 1.7 | 4.3 | 0.00 | 0.00 | 0.00 | 84 | 1016.0 |
| 20260831132330 | 83 | 66 | 2.6 | 4.3 | 0.00 | 0.00 | 0.00 | 83 | 1015.9 |
| 20260831131829 | 83 | 189 | 1.7 | 4.3 | 0.00 | 0.00 | 0.00 | 84 | 1015.9 |
| 20260831131603 | 82 | 15 | 1.7 | 4.3 | 0.00 | 0.00 | 0.00 | 83 | 1016.0 |
| 20260831131329 | 83 | 293 | 0.9 | 4.3 | 0.00 | 0.00 | 0.00 | 84 | 1015.8 |
| 20260831130829 | 82 | 274 | 1.7 | 4.3 | 0.00 | 0.00 | 0.00 | 84 | 1015.9 |
| 20260831130328 | 82 | 240 | 1.7 | 5.2 | 0.00 | 0.00 | 0.00 | 85 | 1015.9 |
| 20260831130116 | 82 | 217 | 0.9 | 4.3 | 0.00 | 0.00 | 0.00 | 85 | 1016.1 |
| 20260831125828 | 82 | 63 | 1.7 | 5.2 | 0.00 | 0.00 | 0.00 | 85 | 1015.9 |
| 20260831125331 | 82 | 51 | 0.9 | 3.5 | 0.00 | 0.00 | 0.00 | 86 | 1015.8 |
| 20260831125316 | 81 | 44 | 1.7 | 3.5 | 0.00 | 0.00 | 0.00 | 86 | 1015.9 |
| 20260831124555 | 81 | 321 | 0.9 | 3.5 | 0.00 | 0.00 | 0.00 | 86 | 1016.0 |
| 20260831124329 | 81 | 338 | 0.9 | 2.6 | 0.00 | 0.00 | 0.00 | 86 | 1015.7 |
| 20260831123829 | 81 | 120 | 0.9 | 2.6 | 0.00 | 0.00 | 0.00 | 87 | 1015.5 |
| 20260831123329 | 81 | 295 | 0.9 | 1.7 | 0.00 | 0.00 | 0.00 | 87 | 1015.6 |
| 20260831123105 | 80 | 74 | 0.0 | 3.5 | 0.00 | 0.00 | 0.00 | 86 | 1015.7 |
| 20260831122828 | 81 | 262 | 0.9 | 3.5 | 0.00 | 0.00 | 0.00 | 87 | 1015.5 |
| 20260831122554 | 81 | 86 | 1.7 | 3.5 | 0.00 | 0.00 | 0.00 | 87 | 1015.3 |
| 20260831121831 | 81 | 329 | 0.9 | 3.5 | 0.00 | 0.00 | 0.00 | 87 | 1015.4 |
| 20260831121601 | 80 | 91 | 0.9 | 2.6 | 0.00 | 0.00 | 0.00 | 86 | 1015.5 |
| 20260831121331 | 81 | 179 | 1.7 | 3.5 | 0.00 | 0.00 | 0.00 | 86 | 1015.2 |
| 20260831120831 | 81 | 231 | 1.7 | 2.6 | 0.00 | 0.00 | 0.00 | 86 | 1015.1 |
| 20260831120329 | 81 | 127 | 0.9 | 2.6 | 0.00 | 0.00 | 0.00 | 86 | 1015.1 |
| 20260831120057 | 81 | 191 | 0.9 | 2.6 | 0.00 | 0.00 | 0.00 | 86 | 1015.2 |
| 20260831115829 | 81 | 332 | 0.9 | 2.6 | 0.00 | 0.00 | 0.00 | 86 | 1015.0 |
| 20260831115329 | 81 | 216 | 0.9 | 4.3 | 0.00 | 0.00 | 0.00 | 86 | 1015.0 |
| 20260831114829 | 81 | 300 | 0.9 | 4.3 | 0.00 | 0.00 | 0.00 | 86 | 1015.0 |
| 20260831114606 | 81 | 288 | 0.9 | 2.6 | 0.00 | 0.00 | 0.00 | 85 | 1015.2 |
| 20260831114329 | 81 | 323 | 0.9 | 2.6 | 0.00 | 0.00 | 0.00 | 86 | 1015.0 |
| 20260831113828 | 81 | 262 | 0.0 | 3.5 | 0.00 | 0.00 | 0.00 | 86 | 1014.9 |
| 20260831113328 | 81 | 179 | 0.9 | 3.5 | 0.00 | 0.00 | 0.00 | 85 | 1014.9 |
| 20260831113052 | 81 | 248 | 0.9 | 3.5 | 0.00 | 0.00 | 0.00 | 85 | 1015.1 |
| 20260831112828 | 82 | 13 | 0.9 | 2.6 | 0.00 | 0.00 | 0.00 | 85 | 1015.0 |
| 20260831112329 | 82 | 20 | 0.9 | 3.5 | 0.00 | 0.00 | 0.00 | 85 | 1015.0 |
| 20260831111829 | 82 | 193 | 0.9 | 3.5 | 0.00 | 0.00 | 0.00 | 85 | 1015.1 |
| 20260831111612 | 81 | 295 | 0.0 | 3.5 | 0.00 | 0.00 | 0.00 | 85 | 1015.2 |
| 20260831111328 | 81 | 231 | 0.0 | 2.6 | 0.00 | 0.00 | 0.00 | 85 | 1015.0 |
| 20260831110829 | 82 | 169 | 0.9 | 1.7 | 0.00 | 0.00 | 0.00 | 85 | 1015.0 |
| 20260831110329 | 82 | 276 | 0.9 | 2.6 | 0.00 | 0.00 | 0.00 | 85 | 1015.0 |
| 20260831110151 | 81 | 35 | 0.0 | 3.5 | 0.00 | 0.00 | 0.00 | 85 | 1015.2 |
| 20260831105829 | 82 | 231 | 0.0 | 3.5 | 0.00 | 0.00 | 0.00 | 85 | 1015.0 |
| 20260831105329 | 82 | 236 | 0.9 | 3.5 | 0.00 | 0.00 | 0.00 | 85 | 1014.8 |
| 20260831104829 | 82 | 91 | 0.9 | 3.5 | 0.00 | 0.00 | 0.00 | 85 | 1015.0 |
| 20260831104605 | 82 | 187 | 1.7 | 4.3 | 0.00 | 0.00 | 0.00 | 85 | 1015.0 |
| 20260831104551 | 81 | 250 | 1.7 | 2.6 | 0.00 | 0.00 | 0.00 | 84 | 1015.1 |
| 20260831104052 | 82 | 145 | 0.0 | 4.3 | 0.00 | 0.00 | 0.00 | 84 | 1014.9 |